This is the latest recevied weather packets stored in our database for station/object JH7UAX-10. If no packets are shown the sender has not sent any weather packets the latest 10 day(s).
| Time | Temp. | Humidity | Pressure | Rain* | Wind** | Luminosity | Snow |
|---|---|---|---|---|---|---|---|
| 1788148767 | 26.11° C | 72% | 1027.5 hPa | 0 mm | - | - | - |
| 1788147854 | 26.11° C | 72% | 1027.5 hPa | 0 mm | - | - | - |
| 1788146961 | 25.56° C | 75% | 1027.5 hPa | 0 mm | - | - | - |
| 1788146054 | 25.56° C | 73% | 1027.6 hPa | 0 mm | - | - | - |
| 1788145160 | 25.56° C | 74% | 1027.6 hPa | 0 mm | - | - | - |
| 1788144254 | 25.56° C | 74% | 1027.5 hPa | 0 mm | - | - | - |
| 1788143355 | 25° C | 74% | 1027.7 hPa | 0 mm | - | - | - |
| 1788141554 | 24.44° C | 76% | 1027.6 hPa | 0 mm | - | - | - |
| 1788121754 | 19.44° C | 88% | 1026.8 hPa | 0 mm | - | - | - |
| 1788119054 | 20° C | 86% | 1026 hPa | 0 mm | - | - | - |
| 1788117255 | 20° C | 86% | 1026.1 hPa | 0 mm | - | - | - |
| 1788116353 | 20° C | 86% | 1026.1 hPa | 0 mm | - | - | - |
| 1788113654 | 20° C | 86% | 1025.8 hPa | 0 mm | - | - | - |
| 1788110954 | 19.44° C | 87% | 1025.9 hPa | 0 mm | - | - | - |
| 1788109167 | 20° C | 86% | 1025.7 hPa | 0 mm | - | - | - |
| 1788107354 | 20° C | 86% | 1025.5 hPa | 0 mm | - | - | - |
| 1788106455 | 20° C | 86% | 1025.6 hPa | 0 mm | - | - | - |
| 1788105555 | 20° C | 86% | 1025.6 hPa | 0 mm | - | - | - |
| 1788104660 | 20° C | 86% | 1025.7 hPa | 0 mm | - | - | - |
| 1788103755 | 20° C | 86% | 1025.4 hPa | 0 mm | - | - | - |
| 1788102854 | 20° C | 86% | 1025.4 hPa | 0 mm | - | - | - |
| 1788101954 | 20° C | 86% | 1025.4 hPa | 0 mm | - | - | - |
| 1788101054 | 19.44° C | 87% | 1025.5 hPa | 0 mm | - | - | - |
| 1788100155 | 19.44° C | 87% | 1025.6 hPa | 0 mm | - | - | - |
| 1788099253 | 19.44° C | 87% | 1025.6 hPa | 0 mm | - | - | - |
* Rain latest hour (hover to see other rain measurements)
** Current wind speed in m/s (hover to see current wind gust speed)